Theta_e
300 300 301 301 301 301 301 301 302 303 303 304 305 306 307 307 306 306 305 307 298 293 295 297 297 294 299 298 293 297 296 299 298 294 293 293 294 296 295 296 295 293 291 293 295 290 287 304 302 296 300 304 303 302
300 300 302 303 303 303 302 302 302 303 304 304 305 306 307 307 307 307 303 311 306 296 296 303 305 307 305 305 301 303 299 298 299 297 298 298 294 297 295 290 299 292 297 295 295 295 304 306 304 305 305 302 302 302
300 301 302 303 303 302 302 302 302 303 304 305 305 306 307 307 307 306 305 306 302 296 296 297 298 306 311 310 311 301 303 305 302 305 298 298 293 299 294 295 296 299 301 297 298 298 300 302 304 304 304 302 301 300
300 301 301 302 303 303 302 302 303 303 304 305 306 307 307 307 307 306 305 308 305 297 289 293 303 301 311 311 309 310 308 309 307 303 299 298 296 301 297 299 297 299 301 296 295 298 300 302 303 302 301 301 299 299
300 301 301 302 303 303 303 303 303 304 304 304 305 306 306 307 307 309 308 308 307 297 290 291 300 305 308 308 307 308 307 306 300 298 297 295 301 299 300 299 297 303 300 298 296 301 301 300 302 302 299 298 298 298
300 300 301 302 303 303 303 303 303 304 304 304 305 305 307 307 307 308 299 305 307 305 294 290 300 301 306 306 305 305 305 303 301 299 299 300 301 300 295 294 299 303 306 307 302 305 303 302 301 301 299 299 299 298
299 300 300 301 302 303 303 303 304 304 304 304 305 306 307 307 308 302 298 304 306 305 296 291 296 302 305 305 304 301 304 301 299 299 297 297 298 299 298 293 300 302 303 304 306 304 300 301 299 300 299 298 298 299
299 300 300 301 302 303 303 303 303 304 305 305 305 306 307 305 305 302 306 307 306 302 300 291 292 295 303 299 298 302 298 300 299 297 297 295 299 299 294 299 300 302 303 303 303 303 302 302 301 299 299 298 296 296
299 300 301 302 302 302 303 303 304 305 305 304 305 307 308 305 305 304 306 308 310 303 296 296 290 289 300 300 301 299 298 293 300 293 294 296 295 292 296 299 299 301 301 301 301 301 301 300 298 297 297 298 296 296
299 300 301 302 302 302 303 304 305 305 304 305 306 301 300 303 305 306 305 301 302 300 300 294 299 294 298 300 297 294 297 292 291 293 297 294 294 299 299 302 301 301 302 302 299 298 299 297 296 296 297 297 297 296
299 300 301 301 302 303 304 304 305 305 305 303 298 296 304 306 305 301 296 295 297 293 297 297 298 294 300 293 293 298 296 294 290 293 291 292 292 297 302 301 303 302 303 303 303 301 301 299 297 296 296 297 297 296
299 300 301 301 303 303 304 305 305 304 302 302 302 304 305 301 297 293 293 295 293 290 295 294 297 300 299 301 295 295 291 293 286 298 292 288 292 297 300 299 301 303 303 302 302 300 299 298 299 298 298 297 297 296
299 300 301 302 303 303 303 304 305 305 305 306 300 297 296 296 290 288 286 290 291 295 296 295 294 298 299 300 294 292 287 289 298 291 289 290 294 297 298 298 298 300 300 299 298 298 298 298 299 299 297 298 297 294
299 300 301 302 303 302 304 304 304 305 303 296 292 289 291 290 290 291 290 292 295 298 297 297 295 293 297 292 293 287 293 294 288 286 286 292 294 297 298 299 298 298 298 297 297 297 297 298 298 297 298 298 297 294
299 300 301 302 302 302 303 304 304 306 301 293 293 288 290 295 295 294 295 293 296 298 298 296 295 294 292 290 292 291 287 285 289 286 289 292 296 298 298 299 297 297 298 298 298 297 297 298 297 296 297 297 296 294
299 300 302 301 302 302 303 305 306 305 300 295 293 291 294 293 294 292 294 295 300 298 298 299 291 289 288 292 287 286 287 286 286 289 292 296 298 298 298 298 299 299 299 299 298 298 298 297 297 296 297 296 295 293
299 300 302 303 302 302 304 304 303 296 295 292 292 294 292 292 292 294 295 296 301 296 292 294 289 288 293 290 289 290 287 288 290 294 297 298 298 298 299 299 298 298 298 298 298 298 298 298 297 296 294 294 294 293
298 302 303 303 303 304 305 302 297 295 292 293 289 292 292 293 295 296 298 298 296 294 296 292 296 289 287 286 287 288 292 296 297 297 297 299 299 299 299 298 297 298 298 298 298 298 297 296 295 295 295 295 294 294
299 302 302 303 302 300 297 296 299 291 296 299 300 301 301 302 303 303 302 303 300 300 296 294 288 290 290 291 291 294 296 297 296 297 298 300 300 298 298 298 298 297 297 297 297 296 297 298 296 295 294 293 291 292
300 301 302 302 302 299 294 295 303 294 292 297 302 299 301 301 303 303 301 301 299 295 291 290 294 297 297 298 300 299 299 298 296 295 295 297 298 298 298 297 297 298 297 297 296 294 296 295 295 293 292 292 292 290
302 304 303 304 302 301 296 295 294 295 296 295 298 299 297 300 300 298 297 301 296 293 293 300 300 300 301 302 303 301 300 300 297 296 295 294 296 297 297 297 298 297 296 296 295 294 294 293 294 293 292 292 292 291
302 302 304 305 297 297 295 297 294 297 297 296 298 298 296 295 296 297 301 296 293 296 302 303 300 300 299 300 300 301 301 301 300 297 294 294 295 296 296 297 296 295 296 296 296 294 293 294 294 293 292 291 290 290
301 302 301 298 292 292 290 299 292 294 292 293 297 294 293 295 297 302 294 297 296 302 305 303 302 301 300 301 300 300 300 299 297 297 297 298 298 298 298 298 298 297 295 295 296 294 293 289 291 293 291 292 292 291
300 297 292 292 291 288 294 291 296 295 294 292 292 291 293 295 299 294 291 295 297 304 302 302 302 301 300 299 296 296 297 299 298 299 299 298 297 297 298 298 298 298 297 296 295 294 294 292 289 292 291 291 292 291
290 290 292 286 293 289 287 288 290 292 290 291 290 291 293 298 291 290 291 296 301 301 301 301 300 299 297 297 297 297 300 299 298 297 299 299 298 298 297 298 297 296 297 294 293 293 293 293 292 291 291 291 290 289
286 290 288 289 291 288 289 287 289 290 292 290 292 298 299 294 289 288 294 298 300 301 300 299 299 298 298 298 297 297 299 301 300 298 298 299 298 297 296 295 293 293 296 296 294 292 291 292 291 289 288 286 283 289
285 287 292 297 296 295 293 294 295 292 290 290 291 292 291 286 288 293 299 303 299 302 304 305 302 299 299 299 300 301 302 302 301 300 301 300 300 301 300 297 295 294 296 295 294 293 291 290 290 289 289 290 290 290
291 292 288 292 293 295 291 293 292 290 292 293 291 287 287 290 289 296 297 299 302 303 304 304 306 303 301 301 302 301 301 302 301 301 300 300 300 299 299 297 295 287 294 294 294 293 293 292 290 289 289 289 289 290
290 295 294 291 293 293 293 292 292 297 299 296 292 292 292 297 301 301 298 299 299 302 302 303 303 303 302 302 302 302 301 300 297 295 294 294 294 295 296 294 293 294 293 291 280 287 290 290 290 289 289 289 289 290
292 296 292 292 291 291 296 298 296 299 302 299 299 298 298 299 301 306 303 298 298 302 302 302 303 303 300 299 299 300 302 301 300 299 297 295 295 296 296 295 294 293 293 292 290 287 281 287 285 288 288 288 289 289
296 295 292 293 291 295 297 299 302 300 298 297 297 295 294 297 301 303 302 303 300 300 302 301 301 302 301 300 299 298 297 300 301 301 301 301 298 297 297 296 295 294 293 291 290 289 288 288 289 288 287 286 285 285
293 292 292 289 293 296 298 297 295 294 295 294 294 296 297 295 294 300 303 304 304 302 297 298 300 300 302 303 303 303 294 301 301 301 300 298 298 297 297 296 294 293 292 291 291 290 288 288 287 287 286 284 284 284
293 293 294 294 293 292 295 294 292 290 292 290 292 294 294 293 291 300 307 305 303 298 298 303 303 303 303 303 303 301 297 302 296 287 287 288 289 292 296 295 293 293 291 290 290 289 288 287 285 284 283 281 281 281
Wind_Speed
18 19 21 21 20 18 19 21 23 22 22 22 23 25 22 15 13 7 7 0 2 3 9 4 5 9 10 7 4 6 6 2 4 4 4 4 3 5 6 8 9 7 4 4 6 4 5 8 8 2 9 9 10 11
18 19 20 20 19 18 18 20 21 21 21 21 23 24 18 16 14 10 4 1 2 3 7 16 15 11 13 10 6 7 4 6 6 4 6 6 4 3 10 5 6 6 4 3 2 6 12 16 16 14 10 11 10 10
18 19 20 20 19 17 18 19 21 21 21 21 23 23 19 14 12 8 6 4 4 3 4 5 6 13 12 10 6 5 5 7 5 4 3 3 4 5 3 7 8 6 4 7 10 12 14 16 15 14 14 12 11 11
18 19 21 20 19 17 17 19 20 20 21 20 21 21 20 16 14 12 5 4 2 3 3 3 10 8 16 5 3 6 7 2 5 4 3 3 2 4 3 5 7 3 7 9 14 13 15 14 14 13 13 12 12 11
18 19 20 20 19 19 19 19 19 19 20 21 22 22 21 19 15 10 3 4 3 2 3 5 11 8 4 4 4 4 5 5 3 3 4 4 3 6 4 2 7 5 7 5 7 15 9 14 13 13 13 12 11 11
18 18 20 21 21 20 19 20 20 19 21 22 24 23 20 16 13 4 1 2 4 2 2 3 4 6 10 5 6 7 5 4 2 3 3 4 3 6 3 3 5 8 10 8 13 15 17 17 13 13 13 12 11 12
18 18 20 21 21 21 20 20 21 20 21 23 23 21 16 9 6 3 4 6 7 3 2 1 2 5 11 7 4 4 5 5 5 4 4 5 3 6 2 4 10 8 14 15 19 18 17 16 14 14 13 12 10 10
18 19 20 20 21 20 20 21 22 22 22 23 21 16 10 6 3 1 1 4 5 3 3 1 1 4 7 4 2 4 3 2 4 3 3 3 0 3 3 10 7 8 14 15 14 14 16 17 15 13 11 9 10 10
18 20 21 20 20 19 20 21 22 22 23 23 19 14 5 5 2 2 5 11 5 4 4 1 2 2 3 2 3 2 2 2 3 3 2 3 0 2 7 9 7 10 7 7 15 16 17 15 13 11 10 10 10 10
18 20 21 20 19 19 20 21 20 21 22 22 8 4 1 4 4 8 4 3 4 4 3 3 4 1 4 1 2 2 1 1 1 4 2 1 2 6 4 11 10 4 8 12 15 15 14 13 11 11 11 10 10 9
19 20 21 20 20 20 20 20 19 19 17 2 4 2 5 1 3 3 3 2 0 1 2 1 3 3 3 2 3 3 2 3 0 3 1 2 3 3 11 11 11 6 7 10 7 10 11 12 12 11 10 9 10 10
19 20 20 20 19 19 19 19 17 10 7 6 6 6 5 4 4 4 2 3 0 3 2 2 4 4 3 1 3 3 2 2 2 3 3 2 5 5 14 13 11 10 8 8 10 11 13 12 11 10 10 9 12 10
19 19 19 20 19 17 17 16 12 13 15 3 4 4 1 3 2 4 3 3 3 3 5 4 2 2 4 3 1 2 2 3 2 3 2 4 5 7 10 11 10 10 12 12 13 13 13 13 12 12 10 10 12 11
19 20 20 19 14 14 17 15 14 11 6 2 3 3 4 2 5 5 5 5 4 5 4 4 2 3 3 2 1 3 0 1 3 1 4 2 9 12 13 13 13 13 13 13 12 11 12 13 13 11 10 9 10 9
19 20 21 12 10 15 17 16 15 7 3 3 3 3 4 4 4 2 3 2 2 3 4 4 2 1 2 2 2 4 2 4 1 4 2 3 5 5 8 10 11 11 11 11 10 10 11 13 11 11 10 9 10 8
19 21 2 9 13 16 17 14 7 3 2 2 3 5 5 2 3 1 4 4 3 1 2 3 2 3 2 2 2 3 4 4 3 3 5 7 10 9 9 10 10 10 10 9 10 10 10 10 11 10 9 9 10 9
16 4 11 13 16 20 11 4 2 3 3 3 2 3 2 3 4 3 3 4 5 1 3 4 3 3 3 3 1 5 3 2 6 6 8 11 10 10 10 11 10 9 9 9 10 8 12 10 9 8 8 7 8 7
4 6 15 14 11 10 3 3 2 3 2 2 2 2 2 3 3 4 3 1 1 1 5 2 2 1 2 2 3 2 3 7 8 7 4 7 9 11 10 11 10 9 9 9 10 9 9 8 7 6 6 6 7 7
11 13 17 11 6 5 3 1 1 4 1 1 3 4 5 3 5 3 1 2 1 1 2 2 1 2 1 3 6 8 8 7 8 10 9 11 11 11 10 10 10 9 9 9 7 6 6 8 7 4 3 4 6 5
19 15 10 7 5 4 4 2 1 4 3 2 3 4 1 3 2 4 4 3 4 2 1 2 2 4 9 9 7 8 8 9 8 9 10 9 9 10 10 8 8 8 7 8 7 6 7 6 6 6 6 6 5 6
9 3 4 4 3 3 3 4 3 4 4 4 4 5 3 3 4 2 1 6 3 1 2 1 5 6 10 8 8 8 9 8 7 9 10 9 9 8 8 8 7 6 6 5 6 4 4 6 5 5 5 6 5 7
2 7 4 2 3 2 4 2 3 5 4 4 4 3 2 1 0 2 4 3 0 1 2 1 7 7 8 9 7 7 8 9 11 10 10 9 8 8 7 7 6 5 5 5 5 5 5 5 4 5 6 7 5 6
7 4 3 2 2 1 5 2 3 3 3 3 4 1 1 1 2 3 2 4 2 2 4 4 8 7 10 10 10 8 8 10 8 8 8 7 7 7 6 5 5 5 5 5 5 5 6 4 3 3 5 3 4 7
3 4 4 2 4 3 3 2 3 3 2 3 3 2 3 1 1 1 0 2 2 4 3 6 7 8 8 9 8 8 9 8 8 7 7 7 7 6 5 5 6 5 5 5 5 5 5 6 3 4 4 4 4 4
3 4 3 5 4 3 4 3 4 4 5 4 2 2 2 1 2 2 2 3 6 3 5 7 7 7 8 7 8 7 9 7 7 7 5 6 7 6 5 5 5 5 4 5 5 5 5 4 4 5 4 4 5 4
5 5 4 3 3 4 3 3 4 3 4 3 1 1 2 1 2 3 2 3 3 4 5 6 6 6 7 8 8 8 8 7 7 6 6 6 6 5 6 5 5 4 3 4 5 6 6 5 6 6 6 6 2 1
4 6 5 5 3 3 4 4 3 3 3 3 3 4 2 2 1 3 2 2 2 3 3 2 3 6 8 8 9 8 6 7 7 7 6 5 5 4 4 4 5 6 4 5 5 5 6 5 5 5 5 5 4 4
5 4 7 5 6 6 6 4 2 2 3 3 2 2 3 4 1 1 1 0 3 6 4 4 6 4 8 10 9 8 8 8 9 8 7 6 5 5 7 7 9 12 7 7 4 6 4 4 5 5 4 5 5 4
5 4 4 8 7 4 4 3 1 2 2 1 2 1 2 2 2 4 2 2 4 6 7 6 7 5 9 8 8 8 9 9 11 13 12 8 7 6 6 7 7 6 6 8 12 11 8 5 4 5 5 4 4 4
7 7 4 5 4 4 1 2 1 0 1 1 2 3 3 2 2 2 7 3 4 8 8 5 6 7 9 10 9 9 8 7 7 8 6 6 6 8 7 7 7 7 6 7 7 8 4 6 5 5 4 4 4 2
2 5 3 2 2 3 3 4 2 2 2 4 4 4 5 2 4 4 4 7 6 5 7 6 8 9 10 10 9 10 9 7 7 5 5 7 9 9 8 7 6 6 6 7 7 7 7 6 5 5 4 4 5 1
4 7 4 4 3 2 1 2 1 3 3 4 3 3 2 3 4 3 3 5 7 8 7 7 8 8 7 8 9 7 8 8 8 7 12 10 10 10 9 7 7 6 6 6 5 6 5 4 5 4 4 4 4 3
5 4 4 3 3 3 2 3 3 2 2 2 3 3 4 3 3 2 3 3 4 5 3 4 4 3 5 5 7 7 8 9 10 8 9 9 9 8 8 7 7 7 8 6 6 6 6 7 7 8 8 7 5 5
Wind_Direction
327 325 325 328 326 324 326 327 327 326 325 331 331 330 335 347 345 327 296 293 299 269 284 262 277 297 336 337 12 312 326 19 317 345 354 82 38 59 73 106 128 123 125 173 145 134 111 141 143 19 121 112 95 78
323 324 326 325 326 324 323 324 323 323 325 329 332 331 330 339 340 328 292 130 282 232 284 312 298 296 305 316 312 308 58 305 7 344 7 35 20 91 135 98 43 128 122 159 62 82 77 82 99 90 89 98 81 78
324 327 327 327 326 328 324 318 318 322 327 330 329 330 331 331 331 332 295 334 290 291 293 325 345 315 311 334 311 322 36 353 23 325 330 8 34 13 97 107 131 100 110 119 105 104 101 99 99 99 94 92 85 75
327 328 327 325 326 322 316 312 314 321 328 328 326 327 331 327 319 316 292 306 270 285 303 315 330 322 310 321 45 1 337 339 291 333 312 54 62 4 58 99 132 116 130 89 92 120 108 99 99 104 102 96 91 78
327 326 330 330 330 328 326 320 320 323 325 327 325 327 326 321 313 302 4 40 38 305 324 309 294 313 344 40 12 359 359 334 13 350 13 70 64 349 65 73 75 11 131 151 158 168 117 127 113 113 102 91 75 73
323 327 330 328 329 330 327 323 322 325 326 325 324 324 322 318 314 286 208 127 11 308 334 328 322 328 8 19 63 39 23 10 14 10 26 91 15 304 91 96 86 84 62 70 112 126 118 121 126 112 104 94 87 77
323 327 325 322 321 321 322 325 325 326 323 319 319 318 318 313 309 353 14 344 347 304 274 215 308 11 355 324 44 28 43 32 1 21 24 37 31 298 275 84 69 70 90 100 115 119 128 142 120 109 107 106 95 84
324 322 319 320 320 322 323 323 325 322 317 314 315 309 307 290 215 290 330 346 331 275 237 49 6 343 0 346 10 9 20 38 46 34 32 20 63 269 58 98 95 109 118 128 140 130 128 119 123 126 120 112 94 78
320 317 318 320 320 324 324 322 322 318 312 309 312 307 258 241 339 30 311 293 227 279 315 59 342 36 310 321 348 327 19 35 92 43 48 51 263 47 114 121 134 117 127 113 121 121 129 132 129 128 114 101 90 77
316 315 321 325 326 324 323 322 322 318 309 306 300 217 234 29 344 287 189 237 204 202 241 351 144 150 204 185 21 12 140 294 77 93 36 303 74 112 86 130 128 197 136 145 133 138 131 130 130 109 93 84 83 70
316 320 324 327 327 327 325 324 323 322 292 329 335 306 334 96 250 251 281 245 49 200 69 349 40 21 77 8 21 1 333 325 148 93 36 254 90 87 83 114 119 120 123 114 113 125 130 127 119 111 101 91 88 76
317 321 322 325 327 327 327 328 322 305 349 332 298 288 280 250 232 253 214 124 320 54 74 24 339 17 15 7 354 357 326 287 62 105 220 130 90 102 109 114 119 141 142 137 129 116 115 117 113 112 97 89 85 79
318 321 322 322 324 320 324 328 334 317 290 206 225 245 296 251 316 359 9 74 39 59 9 32 334 352 20 44 357 314 292 4 248 193 90 58 122 101 103 96 83 79 93 98 107 112 110 112 107 98 96 90 90 82
317 319 320 318 316 321 326 322 323 321 284 282 314 291 296 354 33 23 352 339 349 335 352 333 352 31 353 325 295 276 127 329 260 87 71 73 132 140 149 155 141 122 126 135 140 137 121 110 100 94 89 90 94 87
318 318 315 307 322 325 325 317 304 291 282 299 291 300 11 13 63 332 301 290 251 286 299 334 46 317 268 271 257 283 218 229 338 73 76 110 110 133 144 143 133 133 135 134 136 114 113 107 105 95 88 87 89 81
323 310 328 337 327 320 316 302 271 243 259 268 281 298 9 279 81 336 283 285 156 161 258 254 276 237 230 262 233 232 302 31 65 85 123 129 119 126 121 121 126 123 122 123 117 112 112 112 102 100 96 86 80 72
318 248 350 326 323 306 293 276 288 294 308 304 357 342 311 275 276 295 294 353 359 63 240 214 288 20 338 272 296 28 31 61 122 120 121 131 138 150 138 115 107 103 109 115 122 119 96 104 125 118 98 110 110 105
252 305 308 310 319 302 222 221 273 273 238 181 250 262 209 241 257 257 147 309 298 5 307 10 344 292 258 325 83 83 117 132 120 122 153 169 140 120 120 117 123 116 109 100 103 117 135 136 119 119 135 153 136 124
292 301 305 308 313 305 291 262 259 283 261 198 227 182 227 227 215 246 125 141 118 278 341 9 293 250 71 78 126 138 124 121 134 131 122 118 116 112 118 112 107 108 115 126 130 93 78 61 85 98 96 73 70 37
293 281 274 278 278 264 270 236 191 258 276 266 267 274 316 250 225 157 192 217 145 126 240 227 355 89 125 147 139 132 138 130 136 128 120 120 121 123 121 129 114 120 114 110 111 143 133 119 93 58 42 32 59 63
292 58 255 245 246 248 272 296 220 258 309 302 297 314 302 302 2 32 154 86 53 346 312 2 119 101 101 119 126 130 133 143 150 130 130 130 117 116 121 131 149 138 149 123 100 106 71 89 98 95 98 79 84 91
300 300 278 208 269 240 257 254 276 301 271 264 276 256 331 253 356 350 41 89 52 299 310 324 112 117 113 120 128 142 127 121 107 104 103 123 139 137 140 138 137 125 124 115 99 100 105 95 82 103 119 121 73 42
285 223 244 245 294 221 264 241 265 231 248 246 250 309 215 138 346 10 283 88 110 256 272 106 111 121 112 105 114 128 123 131 138 130 158 133 129 129 127 116 120 125 113 97 106 108 87 106 126 127 135 154 121 132
166 261 254 245 203 255 267 254 253 250 260 282 263 268 81 107 28 299 176 105 148 219 182 149 138 136 137 147 133 141 156 132 139 145 129 134 130 120 110 94 82 75 85 108 109 132 139 90 194 117 87 96 87 84
229 237 182 243 238 220 241 248 219 260 219 230 253 11 89 223 177 255 178 148 146 149 179 172 156 162 160 143 142 144 146 146 136 130 132 115 113 124 118 100 87 90 116 134 141 140 126 126 99 98 97 73 77 76
228 203 202 216 207 227 212 256 238 273 269 223 148 69 82 329 274 221 125 76 145 179 225 184 165 163 146 145 145 157 161 144 137 134 124 136 147 140 140 142 131 117 136 136 146 143 130 114 103 113 117 117 73 318
231 229 211 235 236 234 243 239 233 262 283 17 359 14 330 256 225 74 33 39 111 292 208 218 207 168 150 150 145 144 136 139 154 138 129 118 115 130 162 160 115 106 132 131 129 137 128 136 136 121 112 102 91 55
263 305 226 216 219 226 245 254 215 160 152 154 144 225 289 352 86 85 162 296 271 258 153 228 244 222 153 133 132 141 126 109 120 126 112 101 92 84 85 83 83 48 74 47 78 122 130 128 125 128 123 112 104 84
234 242 240 245 236 236 245 281 80 86 118 210 275 237 182 228 148 148 178 188 261 234 211 206 182 198 125 139 153 147 148 159 161 163 165 152 146 129 121 129 144 134 118 101 52 46 51 76 100 119 120 111 105 114
232 187 225 240 205 230 17 9 81 49 309 338 293 272 264 258 293 155 144 157 230 211 221 195 182 166 164 165 165 157 166 179 179 183 181 168 151 148 153 148 138 135 140 139 130 122 99 136 136 146 158 154 108 92
226 191 216 215 192 298 332 329 294 280 283 287 278 264 278 324 277 239 221 166 184 261 244 189 183 192 178 179 166 170 169 185 178 158 146 142 143 152 149 145 144 140 146 144 153 163 154 186 150 134 137 108 98 303
223 225 224 216 150 127 247 255 310 261 238 239 250 230 240 251 244 193 194 189 187 206 242 249 187 183 190 177 170 178 155 155 151 146 142 141 145 147 152 144 140 140 153 152 154 146 173 129 124 152 144 122 92 66
226 241 219 170 172 175 143 248 243 262 196 237 249 234 241 262 266 135 173 209 195 183 202 292 290 159 155 196 151 128 147 133 109 95 97 111 125 139 141 141 139 155 153 151 150 146 127 116 87 86 88 98 104 95